#timestamp,LO_Frequency,Hit,StdDev 
1599789615.7,286047008.5,N
1599789635.6,286047010.3,N
1599789655.4,286047010.4,N
1599789675.2,286047012.0,N
1599789695.1,286047011.2,N
1599789696.0,286047011.2,N
1599789715.8,286047009.9,N
1599789735.7,286047010.4,N
1599789755.5,286047010.7,N
1599789775.3,286047010.2,N
1599789795.2,286047010.6,N
1599789815.0,286047006.4,N
1599789815.9,286047006.4,N
1599789835.7,286047010.6,N
1599789855.6,286047007.8,N
1599789875.4,286047010.5,Y
1599789895.3,286047002.3,P
1599789915.1,286047004.5,N
1599789935.8,286047005.2,N
1599789955.7,286047004.1,N
1599789975.5,286046998.7,N
1599789995.4,286046999.4,N
1599790015.2,286046996.4,N
1599790035.0,286046995.7,N
1599790035.9,286046995.7,N
1599790055.8,286046993.6,N
1599790075.6,286046993.8,N
1599790095.4,286046996.5,N
1599790115.3,286046999.4,N
1599790135.1,286046996.9,N
1599790155.9,286046996.7,N
1599790175.7,286046997.1,N
1599790195.5,286046999.1,N
1599790215.4,286047002.3,N
1599790235.2,286047003.7,N
1599790255.0,286047006.5,N
1599790255.9,286047006.5,N
1599790275.8,286047011.9,N
1599790295.6,286047009.9,N
1599790315.5,286047008.8,N
1599790335.3,286047006.6,N
1599790355.1,286047002.0,N
1599790375.9,286047001.7,N
1599790395.7,286046999.4,N
1599790415.5,286046993.6,N
1599790435.4,286046991.7,N
1599790455.2,286046993.0,N
1599790475.1,286046990.1,N
1599790476.0,286046990.1,N
1599790495.8,286046992.0,N
1599790515.6,286046992.6,N
1599790535.5,286046996.0,N
1599790555.3,286046998.0,N
1599790575.1,286046998.4,N
1599790595.9,286046996.9,N
1599790615.7,286046996.5,N
1599790635.6,286046997.4,N
1599790655.4,286046998.7,N
1599790675.2,286047001.6,N
1599790695.1,286046999.4,N
1599790696.0,286046999.4,N
1599790715.8,286046994.9,N
1599790735.7,286046995.0,N
1599790755.5,286046997.4,N
1599790775.3,286046995.1,N
1599790795.2,286046997.1,N
1599790815.0,286047002.3,N
1599790815.9,286047002.3,N
1599790835.7,286047001.7,N
1599790855.6,286046997.7,N
1599790875.4,286046996.4,N
1599790895.3,286046995.2,N
1599790915.1,286046997.7,N
1599790916.0,286046997.7,N
1599790935.8,286046997.3,N
1599790955.7,286046995.2,N
1599790975.5,286046993.2,N
1599790995.3,286046991.6,N
1599791015.2,286046987.7,Y
1599791035.0,286046987.5,P
1599791035.9,286046987.5,N
1599791055.8,286046991.4,N
1599791075.6,286046988.8,N
1599791095.4,286046987.9,Y
1599791115.3,286046997.1,P
1599791135.1,286046999.3,N
1599791155.9,286046998.3,N
1599791175.7,286047000.2,N
1599791195.5,286046998.9,N
1599791215.4,286047002.2,N
1599791235.2,286047003.9,N
1599791255.0,286047003.8,N
1599791256.0,286047003.8,N
1599791275.8,286047002.2,N
1599791295.6,286047005.2,N
1599791315.5,286047003.0,N
1599791335.3,286047006.0,N
1599791355.1,286047003.7,N
1599791375.9,286047008.9,N
1599791395.7,286047005.9,N
1599791415.6,286047005.6,N
1599791435.4,286047005.2,N
1599791455.2,286047003.1,N
1599791475.1,286047004.7,N
1599791476.0,286047004.7,N
1599791495.8,286047002.4,N
1599791515.6,286047001.9,N
1599791535.5,286046998.5,N
1599791555.3,286047001.6,N
1599791575.2,286047005.1,N
1599791595.9,286047003.6,N
1599791615.7,286047000.7,N
1599791635.6,286046998.6,N
1599791655.4,286046999.3,N
1599791675.2,286046995.6,N
1599791695.1,286046995.5,N
1599791696.0,286046995.5,N
1599791715.8,286046999.4,N
1599791735.7,286046998.8,N
1599791755.5,286046999.3,N
1599791775.3,286046998.5,N
1599791795.2,286047002.2,N
1599791815.0,286047002.8,N
1599791815.9,286047002.8,N
1599791835.7,286046993.5,N
1599791855.6,286046992.5,N
1599791875.4,286046993.5,N
1599791895.3,286046995.6,N
1599791915.1,286046990.8,N
1599791935.8,286046990.6,N
1599791955.7,286046992.4,N
1599791975.5,286046994.2,N
1599791995.4,286046994.9,N
1599792015.2,286046993.7,N
1599792035.0,286046996.8,N
1599792035.9,286046996.8,N
1599792055.8,286046996.6,N
1599792075.6,286046998.6,N
1599792095.5,286047000.1,N
1599792115.3,286047002.1,N
1599792135.1,286047002.1,N
1599792155.9,286047003.2,N
1599792175.7,286047001.3,N
1599792195.5,286047000.7,N
1599792215.4,286046999.0,N
1599792235.2,286047000.0,N
1599792255.1,286047001.0,N
1599792256.0,286047001.0,N
1599792275.8,286047000.0,N
1599792295.6,286047000.9,N
1599792315.5,286047003.6,N
1599792335.3,286047007.1,N
1599792355.1,286047003.0,N
1599792375.9,286047001.9,N
1599792395.7,286047001.1,N
1599792415.6,286046995.0,N
1599792435.4,286046995.1,N
1599792455.2,286046997.8,N
1599792475.1,286046997.0,N
1599792476.0,286046997.0,N
1599792495.8,286046995.1,N
1599792515.7,286046994.9,N
1599792535.5,286046997.6,N
1599792555.3,286046998.9,N
1599792575.2,286047001.0,N
1599792595.0,286047001.6,N
1599792595.9,286047001.6,N
1599792615.7,286047004.0,N
1599792635.6,286047001.6,N
1599792655.4,286047001.7,N
1599792675.3,286047001.8,N
1599792695.1,286047004.2,N
1599792696.0,286047004.2,N
1599792715.8,286047004.0,N
1599792735.7,286047005.1,N
1599792755.5,286047007.6,N
1599792775.4,286047009.5,N
1599792795.2,286047011.3,Y
1599792815.0,286047010.9,P
1599792815.9,286047010.9,N
1599792835.8,286047012.4,N
1599792855.6,286047007.8,N
1599792875.4,286047010.1,N
1599792895.3,286047008.4,N
1599792915.1,286047008.4,N
1599792935.9,286047010.0,Y
1599792955.7,286047002.3,P
1599792975.5,286046998.3,N
1599792995.4,286046997.0,N
1599793015.2,286046996.8,N
1599793035.1,286046995.5,N
1599793036.0,286046995.5,N
1599793055.8,286046990.6,N
1599793075.6,286046989.4,N
1599793095.5,286046987.1,N
1599793115.3,286046985.7,N
1599793135.2,286046986.6,N
1599793155.9,286046986.9,N
1599793175.7,286046991.0,N
1599793195.6,286046991.3,N
